SBI7001 UNNT-UNBB

Flight info

Callsign SBI7001
Flight time 0h 24m
Altitude 23000
Route ALIRO
Aircraft A320/M-SDE3FGHIRWY/LB1

Departure

Time 2026-05-09 11:14
Airport Novosibirsk Tolmachevo Airport (UNNT)

Arrival

Time 2026-05-09 11:38
Airport Barnaul Gherman Titov International Airport (UNBB)
Time Latitude Longitude Altitude Speed Heading
2026-05-09 11:09 55.01068 82.66329 401 ft 0 kts 171°
2026-05-09 11:10 55.01066 82.66330 373 ft 1 kts 171°
2026-05-09 11:10 55.01040 82.66337 373 ft 6 kts 172°
2026-05-09 11:10 55.01000 82.66273 373 ft 11 kts 249°
2026-05-09 11:10 55.00965 82.66122 373 ft 16 kts 244°
2026-05-09 11:11 55.00939 82.65904 373 ft 21 kts 261°
2026-05-09 11:11 55.00916 82.65627 373 ft 25 kts 261°
2026-05-09 11:11 55.00886 82.65299 373 ft 29 kts 264°
2026-05-09 11:11 55.00872 82.65020 373 ft 22 kts 274°
2026-05-09 11:12 55.00908 82.64728 373 ft 27 kts 283°
2026-05-09 11:12 55.00952 82.64392 373 ft 30 kts 282°
2026-05-09 11:12 55.00983 82.64149 373 ft 25 kts 283°
2026-05-09 11:12 55.01044 82.64000 374 ft 14 kts 348°
2026-05-09 11:13 55.01142 82.64014 375 ft 15 kts 54°
2026-05-09 11:13 55.01168 82.64238 375 ft 31 kts 81°
2026-05-09 11:13 55.01244 82.65062 373 ft 102 kts 81°
2026-05-09 11:13 55.01388 82.66614 381 ft 154 kts 79°
2026-05-09 11:14 55.01580 82.68519 879 ft 159 kts 79°
2026-05-09 11:14 55.01771 82.70431 1411 ft 162 kts 79°
2026-05-09 11:14 55.01973 82.72458 1871 ft 180 kts 80°
2026-05-09 11:14 55.02201 82.74741 2243 ft 202 kts 80°
2026-05-09 11:15 55.02455 82.77310 2585 ft 228 kts 80°
2026-05-09 11:15 55.02741 82.80176 3026 ft 252 kts 80°
2026-05-09 11:15 55.03039 82.83306 3651 ft 268 kts 84°
2026-05-09 11:15 55.02783 82.86530 4494 ft 274 kts 116°
2026-05-09 11:16 55.01640 82.89181 5377 ft 277 kts 136°
2026-05-09 11:16 55.00278 82.91589 6276 ft 281 kts 134°
2026-05-09 11:16 54.98939 82.94174 7133 ft 285 kts 131°
2026-05-09 11:16 54.97673 82.96853 7971 ft 289 kts 129°
2026-05-09 11:17 54.96433 82.99654 8827 ft 294 kts 127°
2026-05-09 11:17 54.95202 83.02510 9671 ft 298 kts 130°
2026-05-09 11:17 54.93683 83.04979 10405 ft 301 kts 146°
2026-05-09 11:17 54.91815 83.06683 10996 ft 311 kts 162°
2026-05-09 11:18 54.89628 83.07404 11231 ft 331 kts 181°
2026-05-09 11:18 54.87276 83.06961 11471 ft 349 kts 192°
2026-05-09 11:18 54.84845 83.06228 12037 ft 358 kts 192°
2026-05-09 11:18 54.82410 83.05525 13164 ft 346 kts 192°
2026-05-09 11:19 54.79996 83.04844 13680 ft 360 kts 192°
2026-05-09 11:19 54.77483 83.04134 14124 ft 370 kts 192°
2026-05-09 11:19 54.74926 83.03416 14726 ft 374 kts 192°
2026-05-09 11:19 54.72353 83.02704 15411 ft 375 kts 192°
2026-05-09 11:20 54.69770 83.01993 16118 ft 376 kts 192°
2026-05-09 11:20 54.67181 83.01278 16822 ft 377 kts 192°
2026-05-09 11:20 54.64589 83.00558 17580 ft 377 kts 192°
2026-05-09 11:20 54.62002 82.99842 18292 ft 377 kts 192°
2026-05-09 11:21 54.59404 82.99124 18949 ft 377 kts 192°
2026-05-09 11:21 54.56824 82.98409 19624 ft 376 kts 192°
2026-05-09 11:21 54.54249 82.97694 20314 ft 374 kts 193°
2026-05-09 11:21 54.51685 82.96980 21021 ft 372 kts 193°
2026-05-09 11:22 54.49089 82.96257 21521 ft 378 kts 193°
2026-05-09 11:22 54.46445 82.95515 21650 ft 392 kts 193°
2026-05-09 11:22 54.43740 82.94757 22110 ft 395 kts 193°
2026-05-09 11:22 54.41002 82.94115 22557 ft 402 kts 187°
2026-05-09 11:23 54.38157 82.94188 22721 ft 417 kts 177°
2026-05-09 11:23 54.35249 82.95148 22757 ft 434 kts 167°
2026-05-09 11:23 54.32346 82.96674 22574 ft 437 kts 166°
2026-05-09 11:23 54.29442 82.98193 21828 ft 433 kts 166°
2026-05-09 11:24 54.26615 82.99654 21297 ft 418 kts 166°
2026-05-09 11:24 54.23844 83.01074 20773 ft 414 kts 167°
2026-05-09 11:24 54.21098 83.02471 20262 ft 410 kts 167°
2026-05-09 11:24 54.18379 83.03851 19769 ft 406 kts 167°
2026-05-09 11:25 54.15686 83.05219 19283 ft 402 kts 167°
2026-05-09 11:25 54.13018 83.06578 18802 ft 399 kts 167°
2026-05-09 11:25 54.10370 83.07925 18328 ft 396 kts 167°
2026-05-09 11:25 54.07733 83.09263 17794 ft 395 kts 167°
2026-05-09 11:26 54.05105 83.10595 17279 ft 397 kts 167°
2026-05-09 11:26 54.02461 83.11933 16762 ft 396 kts 167°
2026-05-09 11:26 53.99825 83.13265 16245 ft 393 kts 167°
2026-05-09 11:26 53.97182 83.14600 15711 ft 391 kts 167°
2026-05-09 11:27 53.94582 83.15916 15179 ft 389 kts 167°
2026-05-09 11:27 53.91988 83.17230 14640 ft 387 kts 167°
2026-05-09 11:27 53.89414 83.18528 14107 ft 386 kts 167°
2026-05-09 11:27 53.86841 83.19819 13558 ft 385 kts 167°
2026-05-09 11:28 53.84314 83.21090 12970 ft 373 kts 167°
2026-05-09 11:28 53.81841 83.22332 12443 ft 368 kts 167°
2026-05-09 11:28 53.79429 83.23751 11897 ft 367 kts 158°
2026-05-09 11:28 53.77248 83.25987 11349 ft 368 kts 144°
2026-05-09 11:29 53.75417 83.28986 10776 ft 367 kts 131°
2026-05-09 11:29 53.73817 83.32304 10234 ft 358 kts 131°
2026-05-09 11:29 53.72303 83.35447 10089 ft 332 kts 131°
2026-05-09 11:29 53.70891 83.38379 9840 ft 314 kts 131°
2026-05-09 11:30 53.69534 83.41184 9645 ft 305 kts 131°
2026-05-09 11:30 53.68190 83.43948 9519 ft 304 kts 131°
2026-05-09 11:30 53.66845 83.46697 9391 ft 303 kts 131°
2026-05-09 11:30 53.65505 83.49435 9258 ft 302 kts 131°
2026-05-09 11:31 53.64165 83.52170 8782 ft 301 kts 131°
2026-05-09 11:31 53.62826 83.54907 8233 ft 297 kts 131°
2026-05-09 11:31 53.61541 83.57541 7707 ft 293 kts 131°
2026-05-09 11:31 53.60239 83.60208 7167 ft 290 kts 131°
2026-05-09 11:32 53.58960 83.62824 6637 ft 287 kts 131°
2026-05-09 11:32 53.57699 83.65395 6112 ft 284 kts 131°
2026-05-09 11:32 53.56441 83.67954 5568 ft 281 kts 131°
2026-05-09 11:32 53.55206 83.70472 5260 ft 281 kts 131°
2026-05-09 11:33 53.53971 83.72990 4791 ft 276 kts 131°
2026-05-09 11:33 53.52674 83.75254 4497 ft 258 kts 145°
2026-05-09 11:33 53.49711 83.77732 4375 ft 232 kts 160°
2026-05-09 11:34 53.48225 83.78761 4269 ft 230 kts 160°
2026-05-09 11:34 53.46742 83.79790 4165 ft 230 kts 160°
2026-05-09 11:34 53.45271 83.80794 4064 ft 222 kts 163°
2026-05-09 11:34 53.43825 83.80914 3955 ft 201 kts 201°
2026-05-09 11:35 53.42712 83.79610 3664 ft 199 kts 238°
2026-05-09 11:35 53.42152 83.77445 3244 ft 206 kts 247°
2026-05-09 11:35 53.41603 83.75242 2936 ft 202 kts 246°
2026-05-09 11:35 53.41068 83.73100 2689 ft 196 kts 246°
2026-05-09 11:36 53.40550 83.71009 2475 ft 192 kts 246°
2026-05-09 11:36 53.40047 83.68977 2242 ft 185 kts 246°
2026-05-09 11:36 53.39566 83.67034 2028 ft 176 kts 245°
2026-05-09 11:36 53.39107 83.65176 1806 ft 163 kts 245°
2026-05-09 11:37 53.38689 83.63492 1634 ft 155 kts 245°
2026-05-09 11:37 53.38279 83.61836 1474 ft 152 kts 246°
2026-05-09 11:37 53.37880 83.60235 1330 ft 152 kts 246°
2026-05-09 11:37 53.37470 83.58588 1166 ft 151 kts 244°
2026-05-09 11:38 53.37051 83.56946 998 ft 154 kts 245°
2026-05-09 11:38 53.36651 83.55293 843 ft 146 kts 245°
2026-05-09 11:38 53.36321 83.53973 832 ft 85 kts 248°
2026-05-09 11:38 53.36182 83.53417 834 ft 41 kts 247°
2026-05-09 11:39 53.36100 83.53209 828 ft 15 kts 188°
2026-05-09 11:39 53.35993 83.53289 831 ft 18 kts 124°
2026-05-09 11:39 53.36024 83.53513 834 ft 23 kts 66°
2026-05-09 11:40 53.36172 83.54103 831 ft 32 kts 67°
2026-05-09 11:40 53.36263 83.54468 831 ft 37 kts 67°
2026-05-09 11:40 53.36362 83.54877 833 ft 32 kts 67°
2026-05-09 11:40 53.36377 83.55068 839 ft 11 kts 130°
2026-05-09 11:41 53.36379 83.55180 831 ft 0 kts 66°